This demonstration page uses our WeatherBlox Daily Observations layout. Learn more.

Left ArrowRight Arrow

Hourly Observations for March 26, 2021

Temp ( °F °C ) Dew Point ( °F °C ) Humidity (%) Winds ( mph kmh ) Pressure ( in mb ) Visibility ( mi km ) Precip ( " mm )
12:15 am 00:15 Clear 39 3.8 35 1.5 85 85 S 10 17 29.89 1012 10 16 N/A
12:35 am 00:35 Clear 38 3.1 34 1.2 88 88 S 8 13 29.90 1012 10 16 N/A
12:55 am 00:55 Clear 38 3.2 34 1.1 86 86 S 7 11 29.89 1012 10 16 N/A
1:15 am 01:15 Clear 37 2.5 33 0.8 89 89 SSE 5 7 29.90 1013 10 16 N/A
1:35 am 01:35 Clear 35 1.5 32 undefined 90 90 SSE 3 6 29.90 1013 10 16 N/A
1:55 am 01:55 Clear 34 1.1 32 undefined 92 92 SE 7 11 29.90 1013 10 16 N/A
2:15 am 02:15 Clear 34 1.1 32 undefined 92 92 SSE 5 7 29.91 1013 10 16 N/A
2:35 am 02:35 Clear 35 1.7 33 0.7 93 93 SE 8 13 29.91 1013 10 16 N/A
2:55 am 02:55 Clear 35 1.8 33 0.7 93 93 SSE 6 9 29.91 1013 10 16 N/A
3:15 am 03:15 Clear 35 1.6 33 0.6 93 93 SSE 6 9 29.90 1012 10 16 N/A
3:35 am 03:35 Clear 35 1.5 33 0.6 94 94 SSE 7 11 29.90 1013 10 16 N/A
3:55 am 03:55 Clear 35 1.7 34 0.9 94 94 SSE 6 9 29.90 1012 10 16 N/A
4:15 am 04:15 Clear 35 1.5 33 0.6 94 94 SSE 5 7 29.90 1013 10 16 N/A
4:35 am 04:35 Clear 34 1.2 33 0.5 95 95 S 5 7 29.90 1013 10 16 N/A
4:55 am 04:55 Clear 35 1.6 34 1 96 96 S 8 13 29.90 1012 10 16 N/A
5:15 am 05:15 Clear 36 2 34 1.1 94 94 SSE 7 11 29.90 1012 10 16 N/A
5:35 am 05:35 Clear 35 1.8 34 1 95 95 SSE 8 13 29.90 1012 10 16 N/A
5:55 am 05:55 Clear 36 2 34 1.1 94 94 SSE 8 13 29.90 1012 10 16 N/A
6:15 am 06:15 Clear 35 1.8 34 1.1 95 95 SE 8 13 29.90 1012 10 16 N/A
6:35 am 06:35 Clear 35 1.8 34 1.1 95 95 SSE 6 9 29.91 1013 7 11 N/A
6:55 am 06:55 Clear 35 1.9 34 1.2 95 95 SE 6 9 29.91 1013 7 11 N/A
7:15 am 07:15 Clear 36 2 35 1.5 97 97 SSE 7 11 29.91 1013 7 11 N/A
7:35 am 07:35 Sunny 37 2.5 35 1.9 96 96 SE 10 17 29.91 1013 7 11 N/A
7:55 am 07:55 Partly Cloudy 37 2.6 36 2 96 96 SE 8 13 29.91 1013 7 11 N/A
8:15 am 08:15 Partly Cloudy 37 2.6 36 2 96 96 SE 8 13 29.92 1013 7 11 N/A
8:35 am 08:35 Sunny 37 2.7 36 2 95 95 SE 10 17 29.92 1013 7 11 N/A
8:55 am 08:55 Sunny 38 3.6 37 2.7 94 94 SE 8 13 29.91 1013 10 16 N/A
9:15 am 09:15 Sunny 40 4.4 37 3 91 91 SE 10 17 29.90 1013 10 16 N/A
9:35 am 09:35 Partly Cloudy 42 5.5 39 3.7 88 88 SSE 12 19 29.89 1012 10 16 N/A
9:55 am 09:55 Partly Cloudy 45 7.2 41 4.9 85 85 SSE 12 19 29.88 1012 10 16 N/A
10:15 am 10:15 Mostly Cloudy 45 7.3 39 3.8 79 79 SE 12 19 29.88 1012 10 16 N/A
10:35 am 10:35 Cloudy 46 7.9 39 3.9 76 76 SE 16 26 29.88 1012 10 16 N/A
10:55 am 10:55 Cloudy 46 7.8 39 3.9 77 77 SE 15 24 29.88 1012 10 16 N/A
11:15 am 11:15 Cloudy 46 7.7 40 4.2 79 79 SE 15 24 29.88 1012 10 16 N/A
11:35 am 11:35 Cloudy 45 7.1 40 4.3 83 83 SE 16 26 29.89 1012 10 16 N/A
11:55 am 11:55 Cloudy with Light Rain 45 7 42 5.5 90 90 SE 17 28 29.88 1012 7 11 N/A
12:15 pm 12:15 Cloudy 47 8.1 44 6.6 90 90 ESE 18 30 29.86 1011 10 16 N/A
12:35 pm 12:35 Cloudy 47 8.6 44 6.6 87 87 ESE 18 30 29.85 1011 10 16 N/A
12:55 pm 12:55 Cloudy 49 9.3 45 7 86 86 ESE 17 28 29.84 1010 10 16 N/A
1:15 pm 13:15 Mostly Cloudy 51 10.5 45 7.4 81 81 ESE 16 26 29.83 1010 10 16 N/A
1:35 pm 13:35 Cloudy 51 10.6 44 6.8 78 78 ESE 20 31 29.82 1010 10 16 N/A
1:55 pm 13:55 Cloudy 54 12 44 6.7 70 70 ESE 21 33 29.80 1009 10 16 N/A
2:15 pm 14:15 Cloudy 52 11.1 43 6.2 72 72 SE 20 31 29.80 1009 10 16 N/A
2:35 pm 14:35 Cloudy 52 11.1 44 6.4 73 73 ESE 15 24 29.80 1009 10 16 N/A
2:55 pm 14:55 Cloudy 53 11.4 43 6.3 71 71 ESE 16 26 29.79 1009 10 16 N/A
3:15 pm 15:15 Cloudy 54 12.2 42 5.6 64 64 SE 16 26 29.77 1008 10 16 N/A
3:35 pm 15:35 Cloudy 53 11.6 44 6.4 71 71 E 15 24 29.78 1008 10 16 N/A
3:55 pm 15:55 Cloudy 53 11.6 44 6.4 71 71 E 14 22 29.77 1008 10 16 N/A
4:15 pm 16:15 Cloudy 53 11.8 44 6.7 71 71 E 16 26 29.77 1008 10 16 N/A
4:35 pm 16:35 Mostly Cloudy 56 13.1 44 6.9 66 66 E 13 20 29.75 1007 10 16 N/A
4:55 pm 16:55 Cloudy 54 12 44 6.6 70 70 E 14 22 29.76 1008 10 16 N/A
5:15 pm 17:15 Cloudy 54 12.2 45 7.2 72 72 E 12 19 29.75 1008 10 16 N/A
5:35 pm 17:35 Cloudy 56 13.2 46 7.6 69 69 ENE 14 22 29.74 1007 10 16 N/A
5:55 pm 17:55 Partly Cloudy 55 12.7 45 7.4 70 70 ENE 13 20 29.75 1007 10 16 N/A
6:15 pm 18:15 Partly Cloudy 54 12.2 46 7.5 73 73 NE 17 28 29.75 1008 10 16 N/A
6:35 pm 18:35 Partly Cloudy 55 12.5 46 7.7 73 73 NE 20 31 29.74 1007 10 16 N/A
6:55 pm 18:55 undefined N/A N/A N/A ENE 17 28 N/A N/A N/A
7:15 pm 19:15 Partly Cloudy 54 12 46 7.7 75 75 ENE 14 22 29.76 1008 10 16 N/A
7:35 pm 19:35 Partly Cloudy with Nearby Thunderstorms 52 11.3 46 7.6 78 78 NE 15 24 29.76 1008 10 16 N/A
7:55 pm 19:55 Sunny 51 10.5 46 7.5 82 82 NE 15 24 29.76 1008 10 16 N/A
8:15 pm 20:15 Clear 50 9.8 45 7.4 85 85 NE 16 26 29.75 1008 10 16 N/A
8:35 pm 20:35 Clear 49 9.6 45 7.4 86 86 ENE 16 26 29.76 1008 10 16 N/A
8:55 pm 20:55 Partly Cloudy with Nearby Thunderstorms 49 9.4 45 7.3 87 87 NE 13 20 29.78 1008 10 16 N/A
9:15 pm 21:15 Mostly Cloudy 48 9.1 45 7.3 89 89 NNW 12 19 29.82 1010 10 16 N/A
9:35 pm 21:35 Cloudy with Rain 48 9.1 45 7.2 88 88 N 13 20 29.83 1010 10 16 N/A
9:55 pm 21:55 Cloudy with Light Rain 48 8.7 45 7.1 90 90 N 13 20 29.85 1011 10 16 0.02 0.51
10:15 pm 22:15 Cloudy with Light Rain 47 8.1 44 6.8 92 92 NNE 15 24 29.85 1011 10 16 N/A
10:35 pm 22:35 Partly Cloudy 46 7.7 44 6.5 92 92 NNE 15 24 29.86 1011 10 16 N/A
10:55 pm 22:55 Clear 45 7 43 5.9 93 93 N 12 19 29.88 1012 7 11 N/A
11:15 pm 23:15 Clear 44 6.8 43 6 95 95 NNE 12 19 29.88 1012 7 11 N/A
11:35 pm 23:35 Clear 44 6.5 42 5.6 94 94 NNE 12 19 29.88 1012 7 11 N/A
11:55 pm 23:55 Clear 43 6 41 5.1 94 94 NNW 7 11 29.90 1012 7 11 N/A

Powered by AerisWeather